User: anonymous   Login
Location: Lancaster
(34.6980°N, 118.1360°W)
Time: 07:22:34
(UTC-08:00)
Language:

ITAMSAT 1 - Orbit

View from above orbital plane
View from above orbital plane
View from above satellite
View from above satellite

Ground track
Ground track

The orbit data is extracted from the following two-line orbital elements,

1 22826U 93061D   18350.95087683 +.00000010 +00000-0 +21498-4 0  9991
2 22826 098.8791 330.5966 0009242 157.1759 202.9835 14.30379463315635
Epoch (UTC): 16 December 2018 22:49:15
Eccentricity: 0.0009242
inclination: 98.8791°
perigee height: 784 km
apogee height: 797 km
right ascension of ascending node: 330.5966°
argument of perigee: 157.1759°
revolutions per day: 14.30379463
mean anomaly at epoch: 202.9835°
orbit number at epoch: 31563

The dashed part of the orbit path shows where the satellite is in the earth's shadow,  

DLR